SL-8 R/B

Satellite information

Favourite Embed

Satellite Type and Status

ROCKET BODYIN ORBIT

Key statistics

Satellite SL-8 R/B at a glance.

Uptime

13186

Days in orbit

Revolutions

≈ 13.8

Per day

Orbit

LEO

Low Earth Orbit

Inclination

83.0

Latest

Satellite identification and parameters

Extended collection of information and parameters for SL-8 R/B.

Object identification

Identified? True

Debris? False

Object name: SL-8 R/B

International designator: 1989-028B

Object number (NORAD): 19922

Object ID (CCSDS): 19922

Country: COMMONWEALTH OF INDEPENDENT STATES (CIS)

Current information (Y/N): Y

RCS size: LARGE

Orbital parameters

Period: 104.54 minutes

Inclination: 82.9571 deg

SMA: 7351.047 km

Apoapsis: 1000.767 km

Periapsis: 945.057 km

RAAN: 86.7535 deg

Eccentricy: 0.0037893

Argument of periapsis: 85.3378 deg

Mean anomaly: 275.2106 deg

Mean motion: 13.77459849 rev/day

Mean motion (dot): 0.00000122 rev/day2

B* drag term: 0.00010677 1/REarth

Two-line elements (TLE)

Creation date: May 11, 2025, 2:40 a.m.

Reference frame: TEME

Reference center: EARTH

Epoch: May 10, 2025, 2:58 p.m. UTC

TLE line 0: 0 SL-8 R/B

TLE line 1: 1 19922U 89028B 25130.62428956 .00000122 00000-0 10677-3 0 9992

TLE line 2: 2 19922 82.9571 86.7535 0037893 85.3378 275.2106 13.77459849814019

Live tracking on map

Real-time ground track for satellite SL-8 R/B.

In-orbit conjunctions

A list of the most updated potential collisions computed for object SL-8 R/B.

Target Orbit TCA Probability of collision Miss distance Type
COSMOS 952 DEB LEO 2024-06-11 19:04:29 0.0001760783 268.0 (m) DEBRIS

Associated space launch

Navigation satellite providing location information for the Tsiklon-B navigation system

SL-8 R/B was lifted into orbit during the mission ‘Kosmos-3M | Parus 65’, on board a Kosmos-3M space rocket.

The launch took place on April 4, 1989, 6:36 p.m. from 132/2.

For more information about the launch, click the button.

Launch to space Kosmos-3M | Parus 65
Kosmos-3M | Parus 65

Agency: N/A

Status: Launch Successful

Launch date: April 4, 1989, 6:36 p.m. UTC

Rocket: Kosmos-3M

Launch pad: 132/2

Location: Plesetsk Cosmodrome, Russian Federation

...

Latest news about this satellite

There are no fresh news available about this satellite. Check back as we update our databases every day.


Newsletter sign-up

Weekly statistics, charts and insights to help you stay on top of the space industry.